Location: Dampvalley
(47.9094°N, 6.1967°E)
Time: 13:21:49
(UTC+00:00)

Cosmos 1437 Rocket - Pass Details

Date: 05 March 2021
Orbit: 501 x 565 km, 81.2° (Epoch: 19 April)

Event Time Altitude Azimuth Distance (km) Brightness Sun altitude
Rises 05:05:23 0° 187° (S) 2,745 6.3 -11.3°
Reaches altitude 10° 05:07:34 10° 186° (S) 1,850 5.4 -11.0°
Maximum altitude 05:11:39 80° 99° (E) 573 3.0 -10.3°
Drops below altitude 10° 05:15:43 10° 14° (NNE) 1,839 5.7 -9.6°
Sets 05:17:53 0° 13° (NNE) 2,728 6.6 -9.3°
